Hourly Data Report for May 14, 2018

DRYDEN REGIONAL
ONTARIO
Current Station Operator: NAVCAN

49°49'39.000" N
92°44'39.000" W
412.70 m
6032125
71527
YHD

Download Data

Hourly Data (May 2018)
Hourly Data Report for May 14, 2018
TIME
LST
Temp Definition
°C
Dew Point Definition
°C
Rel Hum Definition
%
Precip. Amount Definition
mm

Wind Dir Definition
10's deg

Wind Spd Definition
km/h
Visibility Definition
km
Stn Press Definition
kPa
Hmdx Definition


Wind Chill Definition


Weather Definition


00:00 14.7 2.7 44 0.0   0 16.1 96.10     LegendNANA
01:00 12.2 2.7 52 0.0 26 9 16.1 96.17     LegendNANA
02:00 13.0 2.3 48 0.0 34 5 16.1 96.14     LegendNANA
03:00 12.1 3.1 54 0.0 20 4 16.1 96.11     LegendNANA
04:00 11.1 2.1 54 0.0 30 15 16.1 96.19     LegendNANA
05:00 11.4 2.2 53 0.0 32 8 16.1 96.22     LegendNANA
06:00 11.1 3.4 59 0.0 LegendMM 4 16.1 96.23     LegendNANA
07:00 12.7 3.6 54 0.0 25 9 16.1 96.24     LegendNANA
08:00 14.9 3.2 45 0.0 25 13 16.1 96.34     LegendNANA
09:00 16.9 0.3 32 0.0 28 21 16.1 96.35     LegendNANA
10:00 18.5 -0.2 28 0.0 31 26 16.1 96.34     LegendNANA
11:00 19.7 -0.6 25 0.0 28 28 16.1 96.32     LegendNANA
12:00 20.3 -0.9 24 0.0 28 32 16.1 96.25     LegendNANA
13:00 20.0 -1.1 24 0.0 27 39 16.1 96.23     LegendNANA
14:00 19.7 -1.4 24 0.0 29 32 16.1 96.24     LegendNANA
15:00 19.5 -3.4 21 0.0 31 28 16.1 96.22     LegendNANA
16:00 19.3 -5.0 19 0.0 32 26 16.1 96.25     LegendNANA
17:00 18.7 -4.0 21 0.0 30 24 16.1 96.27     LegendNANA
18:00 17.1 -2.3 26 0.0 31 18 16.1 96.36     LegendNANA
19:00 15.1 -4.7 25 0.0 32 24 16.1 96.43     LegendNANA
20:00 12.9 -4.7 29 0.0 31 9 16.1 96.52     LegendNANA
21:00 11.5 -4.7 32 0.0 30 11 16.1 96.57     LegendNANA
22:00 10.4 -5.0 33 0.0 29 5 16.1 96.61     LegendNANA
23:00 8.8 -3.7 41 0.0 31 9 16.1 96.64     LegendNANA

Notes on Data Quality.

Legend

  • E = Estimated
  • M = Missing
  • NA = Not Available*
  • [empty] = Indicates an unobserved value
Date modified: